Location: Tom
(33.0437°N, 96.9452°W)
Time: 13:05:56
(UTC-05:00)

Envisat - Pass Details

Date: 28 December 2018
Orbit: 764 x 766 km, 98.2° (Epoch: 25 March)

Event Time Altitude Azimuth Distance (km) Brightness Sun altitude
Rises 19:31:27 0° 172° (S) 3,212 6.3 -24.9°
Reaches altitude 10° 19:33:45 10° 175° (S) 2,290 5.5 -25.3°
Maximum altitude 19:38:46 69° 259° (WSW) 815 3.2 -26.4°
Drops below altitude 10° 19:43:50 10° 342° (NNW) 2,305 5.5 -27.4°
Sets 19:46:10 0° 345° (NNW) 3,235 6.3 -27.9°
